sat.trackr.live / text

‹ back to catalog

STARLINK-32903

NORAD 63090 · 2025-037P

PAYLOAD ACTIVE UNKNOWN

§ Identity

Operator
Country
US
Launch date
2025-02-23
Launch site
AFWTR
Launch vehicle
Mass (kg)
RCS (m²)

Purposes: comms

External: N2YO · Heavens-Above · Gunter

§ Orbital elements

Epoch: 2026-05-25T02:36:50.434848Z

Period
96.11 min
Inclination
70.0002°
Eccentricity
0.0003968
Mean motion
14.98335499 rev/d
Perigee alt
569.3 km
Apogee alt
574.8 km
Semi-major
6,950.2 km
B*
3.4114e-4
RAAN
161.5891°
Arg perigee
263.8172°
Mean anomaly
96.2535°
Rev number
6,991

§ Raw data

STARLINK-329031 63090U 25037P   26145.10891707  .00003980  00000+0  34114-3 0  99912 63090  70.0002 161.5891 0003968 263.8172  96.2535 14.98335499 69915

JSON: /api/v1/satellites/63090 · /tle

For live sub-satellite position, see the globe view (requires WebGL).

§ Visibility from observer

Set your observer location to see the next 7 days of passes ≥ 10°. The values pass through the URL so the page stays shareable.

No JS? Fill the form by hand. The geolocation button needs JavaScript.